Lid_Strength_Index
2 2 3 3 2 2 3 3 2 3 3 2 2 2 2 2 2 3 2 1 2 2 2 2 2 2 2 2 3 3 3 4 5 5 5 4 4 3 2 2 1 1 1
3 2 3 3 2 3 3 3 2 2 3 3 2 3 2 0 1 1 1 2 1 1 3 3 2 2 2 2 3 3 3 4 4 5 5 4 4 4 4 3 1 -0 1
1 2 3 3 3 3 3 2 2 1 1 2 3 3 2 2 1 1 1 1 2 2 3 3 3 3 3 4 4 4 4 4 4 4 5 4 4 3 3 3 2 2 1
2 2 2 2 3 3 3 1 1 1 1 1 1 2 3 3 2 3 2 2 2 3 3 3 3 4 4 3 3 4 4 4 3 5 5 5 4 4 4 4 4 1 3
2 2 2 1 2 2 2 1 1 2 1 1 2 4 5 4 4 3 4 3 3 3 3 3 3 2 0 2 4 5 4 5 5 5 5 5 5 5 5 4 4 5 4
2 2 1 1 1 1 3 3 1 2 2 1 1 3 6 4 4 4 4 4 1 1 2 3 3 1 1 1 1 2 3 4 5 5 5 6 5 5 5 5 6 6 7
2 1 1 2 1 1 3 3 3 3 3 3 3 3 5 6 5 6 5 5 3 1 1 2 2 1 3 4 3 2 2 2 2 4 5 5 5 4 5 7 7 7 6
2 2 1 2 2 1 1 3 4 4 3 4 2 2 5 6 6 7 6 5 4 3 3 3 3 3 5 6 3 3 3 3 4 3 4 4 4 4 6 6 7 7 6
2 2 1 1 3 3 2 3 4 4 4 3 1 2 2 5 6 6 7 7 4 3 2 1 2 3 5 6 4 5 5 5 3 3 3 4 5 6 6 6 7 9 9
2 1 1 1 2 2 2 3 2 3 3 3 3 3 3 3 4 6 7 7 6 5 3 3 3 4 6 6 6 6 8 8 8 8 7 6 5 5 5 6 6 9 9
1 1 2 1 2 3 3 2 2 2 1 4 3 4 4 3 4 6 7 7 7 7 5 4 6 6 7 7 7 7 7 8 8 9 7 6 5 5 5 5 5 7 8
2 1 2 1 1 2 3 2 3 1 2 4 4 4 3 3 4 5 6 7 7 8 7 5 5 7 7 7 8 7 7 7 8 7 7 6 6 4 3 3 4 4 6
2 3 1 1 1 1 2 2 4 4 3 2 2 2 4 3 4 5 5 7 7 9 8 6 6 7 7 8 7 7 7 7 8 7 8 7 6 5 5 4 3 4 5
2 2 2 2 3 1 1 3 4 4 5 5 4 4 4 6 5 4 4 6 7 7 6 7 6 6 6 6 6 5 5 6 7 7 8 7 7 7 7 6 6 6 6
2 2 2 3 3 2 1 2 3 4 4 4 4 5 5 6 5 5 6 6 7 7 9 10 9 8 8 7 6 5 5 5 6 7 7 7 8 8 7 7 7 8 8
3 3 3 2 4 2 2 2 4 6 6 7 7 6 5 6 7 8 7 8 8 9 10 10 10 10 9 8 8 7 5 5 5 6 7 9 8 8 8 8 8 8 8
3 3 3 3 2 4 3 2 3 3 5 6 7 8 8 6 8 9 9 10 10 10 10 11 10 10 9 8 7 7 7 6 7 8 9 9 8 7 8 7 8 7 8
2 3 3 3 3 3 4 3 2 3 3 4 5 6 7 9 9 9 9 10 10 10 10 10 9 9 8 7 7 7 7 8 8 8 8 8 8 7 7 8 8 8 9
2 2 1 3 4 4 4 3 3 2 3 4 4 5 7 9 9 9 10 9 9 9 9 9 8 8 7 7 7 7 8 8 8 9 9 9 8 7 8 8 8 9 9
3 3 4 1 4 4 3 3 2 3 2 2 3 4 5 9 8 9 10 9 9 9 8 8 7 7 7 7 7 7 7 8 8 9 9 9 8 7 8 8 8 8 9
5 4 4 3 2 3 3 3 2 2 2 2 2 3 8 5 4 5 6 8 8 7 7 7 7 7 6 6 7 7 7 7 8 8 8 8 8 8 8 8 8 8 8
5 5 5 4 3 2 3 3 2 2 3 2 2 2 9 6 4 4 5 4 5 6 5 6 6 6 6 7 7 7 7 7 8 8 8 9 9 9 8 8 8 9 9
3 4 5 3 2 3 2 3 4 4 4 3 2 2 3 3 3 3 3 3 3 4 5 5 5 6 6 6 6 6 7 8 8 8 9 9 9 9 9 10 9 10 9
4 2 2 4 3 4 4 4 4 7 6 5 4 2 2 3 3 2 2 2 3 3 2 5 5 4 5 6 7 7 7 8 8 8 9 9 10 10 10 10 9 9 8
1 2 3 4 4 5 5 5 5 5 6 6 6 4 3 1 2 1 2 1 2 3 2 2 3 3 5 5 7 7 9 11 8 10 9 9 9 10 11 11 10 9 9
1 3 4 5 5 5 5 5 5 5 6 6 5 4 3 3 3 2 2 1 1 2 2 2 3 2 2 4 4 8 10 11 9 10 9 9 10 10 10 10 10 10 9